Regional Weather Roundup
Issued by NWS Jackson, KY

Home | Current Version | Previous Version | Graphics & Text | Print | Product List | Glossary On
Versions: 1 2 3 4 5 6 7 8 9 10 11 12 13 14 15 16 17 18 19 20 21 22 23 24 25 26 27
000
ASUS43 KJKL 230710
RWRJKL

EAST KENTUCKY HOURLY WEATHER ROUNDUP
NATIONAL WEATHER SERVICE JACKSON KY
300 AM EDT SAT SEP 23 2017

NOTE: "FAIR" INDICATES FEW OR NO CLOUDS BELOW 12,000 FEET WITH
NO SIGNIFICANT WEATHER AND/OR OBSTRUCTIONS TO VISIBILITY.

* THESE REPORTS ARE NOT UNDER NWS QUALITY CONTROL AND MAY NOT
  REPORT WEATHER SUCH AS PRECIPITATION AND FOG.

KYZ079-080-083-085-087-088-110-112-115-119-120-230800
...EASTERN KENTUCKY...

CITY           SKY/WX    TMP DP  RH WIND       PRES   REMARKS
JACKSON        CLEAR     67  64  90 CALM      30.09S
LONDON         CLEAR     63  62  97 CALM      30.07F
SOMERSET*      CLEAR     63  63 100 CALM      30.07F
MONTICELLO*    CLEAR     61  60  97 VRB6      30.07F
WILLIAMSBURG*  SUNNY     64  64 100 CALM      30.07S
MIDDLESBORO*   PTCLDY    64  64 100 CALM      30.09S
HARLAN APT*    CLOUDY    63  61  94 CALM      30.11S
PIKE CO APT*     N/A     66  66 100 S3        30.09F
BIG SANDY APT*   N/A     64  64 100 CALM      30.08F FOG
MOREHEAD APT*  SUNNY     66  64  94 CALM      30.09F FOG
$$

KYZ035-036-041-042-044-050-067-078-099-230800
...CENTRAL KENTUCKY...

CITY           SKY/WX    TMP DP  RH WIND       PRES   REMARKS
MT STERLING*   CLEAR     63  63 100 CALM      30.09S
FLEMING/MASON* CLEAR     65  65  99 CALM      30.09S FOG
DANVILLE*      PTCLDY    61  61 100 CALM      30.09R FOG
LEXINGTON      CLEAR     65  62  90 CALM      30.08R
FRANKFORT      CLEAR     65  61  87 N3        30.06S
LOUISVILLE     CLEAR     73  66  78 SE3       30.05S
LEBANON*         N/A     68  63  83 CALM      30.07S
GLASGOW*       CLEAR     67  67 100 CALM      30.04S
BOWLING GREEN  CLEAR     69  68  96 CALM      30.03F
$$

KYZ091>093-OHZ055-061-077-WVZ005-015-034-035-042-230800
...SOUTHERN OHIO/WEST VIRGINIA...

CITY           SKY/WX    TMP DP  RH WIND       PRES   REMARKS
COVINGTON      CLEAR     66  66 100 CALM      30.07F
COLUMBUS       PTCLDY    69  64  84 CALM      30.07F
DAYTON         CLEAR     69  63  81 CALM      30.09S
WILMINGTON     CLEAR     62  62 100 SE3       30.08F
HUNTINGTON     FOG       64  62  93 CALM      30.07S VSB 1/4
CHARLESTON     PTCLDY    62  61  96 CALM      30.07F FOG
PINEVILLE*     CLOUDY    64  62  94 MISG      30.16S FOG
BECKLEY        CLOUDY    63  59  87 CALM      30.14F
BLUEFIELD      PTCLDY    63  58  83 CALM      30.16F
LOGAN CO APT*    N/A     66  66 100 CALM      30.09F
$$

VAZ002-007-008-TNZ017-027-036-066-071-230800
...SOUTHWEST VIRGINIA/EAST TENNESSEE...

CITY           SKY/WX    TMP DP  RH WIND       PRES   REMARKS
WISE*          CLOUDY    68  61  77 CALM      30.16S
JONESVILLE*      N/A     63  63 100 CALM      30.11S
ABINGDON*      MOCLDY    66  63  90 CALM      30.12S
BRISTOL        MOCLDY    63  62  97 N3        30.09S
MORRISTOWN*    SUNNY     70  63  78 CALM      30.05F
SEVIERVILLE*   SUNNY     64  63  94 CALM      30.05S
KNOXVILLE      PTCLDY    68  65  90 CALM      30.04S
LAFOLLETTE*    SUNNY     64  64 100 CALM      30.10F FOG
OAK RIDGE      PTCLDY    69  66  90 CALM      30.06S
CROSSVILLE     CLEAR     64  63  96 CALM      30.10S FOG
NASHVILLE      CLEAR     71  68  90 CALM      30.03S
$$

...KEY TO REMARKS...
VSB - VISIBILITY IN MILES
WCI - WIND CHILL INDEX
HX  - HEAT INDEX

$$




USA.gov is the U.S. government's official web portal to all federal, state and local government web resources and services.